Volver al catálogo

GHGSAT-C5

ActivoCienciaSSO
NORAD 52744·PAYLOAD·🇨🇦 Canada

Lanzado May 25, 2022 desde Cape Canaveral Space Force Station

Loading…

Próximos Pases (próximas 24 horas)

TLE

ActualizadoSource: Space-Track

Época: Sep 14, 2026, 20:34 UTC

1 52744U 22057N   26257.85710677  .00005758  00000-0  17039-3 0  9999
2 52744  97.6812  48.6865 0007180 150.9985 209.1658 15.35301900239290

Sigue GHGSAT-C5 en tiempo real con AllMySat

Download on the App Store